EW3281 Weather Reports


Display with metric or nautical units.
time (UTC)temp
F
wind
direction
speed
MPH
gust
MPH
rain 1hr
in
rain 24hr
in
rain mn
in
humidity
%
barometer
mb
20260906133029 62 210 0.0 0.0 0.00 0.05 0.05 93 1013.5
20260906132527 62 262 0.0 0.0 0.00 0.05 0.05 93 1013.5
20260906132025 62 229 0.0 0.0 0.00 0.05 0.05 94 1013.5
20260906131536 61 110 0.0 0.0 0.00 0.05 0.05 94 1013.4
20260906131023 61 210 0.0 0.0 0.00 0.05 0.05 94 1013.5
20260906130523 61 217 0.0 0.0 0.00 0.05 0.05 94 1013.5
20260906130023 61 197 0.0 0.0 0.00 0.05 0.05 95 1013.5
20260906125522 61 285 0.0 0.0 0.00 0.05 0.05 94 1013.4
20260906124521 60 242 0.0 0.0 0.00 0.05 0.05 95 1013.3
20260906124022 60 172 0.0 0.0 0.00 0.05 0.05 95 1013.3
20260906123521 60 200 0.0 0.0 0.00 0.05 0.05 95 1013.3
20260906123020 60 199 0.0 0.0 0.00 0.05 0.05 95 1013.3
20260906122520 60 198 0.0 0.0 0.00 0.05 0.05 95 1013.3
20260906122019 60 188 0.0 0.0 0.00 0.05 0.05 95 1013.2
20260906121520 60 229 0.0 0.0 0.00 0.05 0.05 96 1013.2
20260906121019 60 229 0.0 0.0 0.00 0.05 0.05 95 1013.2
20260906120519 60 229 0.0 0.0 0.00 0.05 0.05 96 1013.1
20260906120018 60 229 0.0 0.0 0.00 0.05 0.05 95 1013.1
20260906115520 59 229 0.0 0.0 0.01 0.05 0.05 95 1013.1
20260906114518 59 229 0.0 0.0 0.01 0.05 0.05 95 1013.0
20260906114018 59 138 0.0 0.0 0.01 0.05 0.05 95 1013.0
20260906113518 59 139 0.0 0.0 0.02 0.05 0.05 95 1013.0
20260906113021 59 138 0.0 0.0 0.04 0.05 0.05 95 1012.9
20260906112520 59 138 0.0 0.0 0.05 0.05 0.05 95 1012.8
20260906112015 59 138 0.0 0.0 0.05 0.05 0.05 94 1012.7
20260906111515 59 138 0.0 0.0 0.05 0.05 0.05 94 1012.6
20260906111013 59 138 0.0 0.0 0.05 0.05 0.05 94 1012.6
20260906110513 59 138 0.0 0.0 0.05 0.05 0.05 94 1012.5
20260906110012 59 138 0.0 0.0 0.05 0.05 0.05 94 1012.4
20260906105511 60 138 0.0 0.0 0.05 0.05 0.05 94 1012.3
20260906104515 60 138 0.0 0.0 0.04 0.04 0.04 94 1012.2
20260906104009 60 143 0.0 0.0 0.04 0.04 0.04 94 1012.2
20260906103508 60 143 0.0 0.0 0.04 0.04 0.04 94 1012.2
20260906103008 60 11 0.0 0.0 0.03 0.03 0.03 94 1012.2
20260906102507 61 352 0.0 0.0 0.01 0.01 0.01 94 1012.2
20260906102007 61 349 0.0 0.0 0.00 0.00 0.00 94 1012.1
20260906101504 61 238 0.0 0.0 0.00 0.00 0.00 94 1012.0
20260906101004 61 228 0.0 0.0 0.00 0.00 0.00 94 1011.9
20260906100504 61 348 0.0 0.0 0.00 0.00 0.00 94 1011.9
20260906100002 61 348 0.0 0.0 0.00 0.00 0.00 94 1011.8
20260906095502 61 351 0.0 0.0 0.00 0.00 0.00 94 1011.7
20260906094506 61 198 0.0 0.0 0.00 0.00 0.00 94 1011.5
20260906094002 61 181 0.0 0.0 0.00 0.00 0.00 94 1011.4
20260906093503 61 181 0.0 0.0 0.00 0.00 0.00 94 1011.3
20260906093100 61 179 0.0 0.0 0.00 0.00 0.00 94 1011.3
20260906092601 61 178 0.0 0.0 0.00 0.00 0.00 94 1011.3
20260906092059 61 178 0.0 0.0 0.00 0.00 0.00 94 1011.2
20260906091605 61 178 0.0 0.0 0.00 0.00 0.00 94 1011.1
20260906091059 61 178 0.0 0.0 0.00 0.00 0.00 94 1011.1
20260906090558 61 176 0.0 0.0 0.00 0.00 0.00 94 1011.1
20260906090059 61 176 0.0 0.0 0.00 0.00 0.00 94 1011.1
20260906085557 61 176 0.0 0.0 0.00 0.00 0.00 94 1011.1
20260906085158 62 176 0.0 0.0 0.00 0.00 0.00 94 1011.0
20260906084556 62 176 0.0 0.0 0.00 0.00 0.00 94 1010.9
20260906084057 62 176 0.0 0.0 0.00 0.00 0.00 94 1010.9
20260906083556 61 176 0.0 0.0 0.00 0.00 0.00 94 1010.9
20260906083057 61 168 0.0 0.0 0.00 0.00 0.00 94 1010.9
20260906082555 61 351 0.0 0.0 0.00 0.00 0.00 94 1010.8
20260906082058 61 351 0.0 0.0 0.00 0.00 0.00 94 1010.8
20260906081558 61 351 0.0 0.0 0.00 0.00 0.00 94 1010.7
20260906081054 62 351 0.0 0.0 0.00 0.00 0.00 94 1010.6
20260906080555 62 351 0.0 0.0 0.00 0.00 0.00 94 1010.5
20260906080107 62 351 0.0 0.0 0.00 0.00 0.00 94 1010.5
20260906075554 62 278 0.0 0.0 0.00 0.00 0.00 94 1010.5
20260906075156 62 268 0.0 0.0 0.00 0.00 0.00 94 1010.5
20260906074559 62 268 0.0 0.0 0.00 0.00 0.00 94 1010.5
20260906074055 62 268 0.0 0.0 0.00 0.00 0.00 94 1010.5
20260906073554 62 268 0.0 0.0 0.00 0.00 0.00 94 1010.7
20260906073054 62 268 0.0 0.0 0.00 0.00 0.00 94 1010.7
20260906072554 62 268 0.0 0.0 0.00 0.00 0.00 94 1010.7
20260906072055 62 268 0.0 0.0 0.00 0.00 0.00 94 1010.7
20260906071600 62 268 0.0 0.0 0.00 0.00 0.00 94 1010.7
20260906071052 62 194 0.0 0.0 0.00 0.00 0.00 93 1010.6
20260906070553 62 179 0.0 0.0 0.00 0.00 0.00 93 1010.6
20260906070052 62 178 0.0 0.0 0.00 0.00 0.00 93 1010.7
20260906065553 62 178 0.0 0.0 0.00 0.00 0.00 93 1010.7
20260906065153 62 178 0.0 0.0 0.00 0.00 0.00 93 1010.6
20260906064552 62 178 0.0 0.0 0.00 0.00 0.00 93 1010.6
20260906064054 62 178 0.0 0.0 0.00 0.00 0.00 93 1010.6
20260906063555 62 178 0.0 0.0 0.00 0.00 0.00 92 1010.6
20260906063057 62 179 0.0 0.0 0.00 0.00 0.00 92 1010.6
20260906062555 62 178 0.0 0.0 0.00 0.00 0.00 92 1010.5
20260906062051 62 178 0.0 0.0 0.00 0.00 0.00 92 1010.5
20260906061556 62 179 0.0 0.0 0.00 0.00 0.00 92 1010.6
20260906061051 62 178 0.0 0.0 0.00 0.00 0.00 92 1010.7
20260906060552 62 178 0.0 0.0 0.00 0.00 0.00 92 1010.7
20260906060051 62 178 0.0 0.0 0.00 0.00 0.00 92 1010.7
20260906055551 62 178 0.0 0.0 0.00 0.00 0.00 92 1010.7
20260906055154 62 178 0.0 0.0 0.00 0.00 0.00 92 1010.7
20260906054551 62 178 0.0 0.0 0.00 0.00 0.00 92 1010.7
20260906054051 62 178 0.0 0.0 0.00 0.00 0.00 92 1010.7
20260906053550 62 178 0.0 0.0 0.00 0.00 0.00 92 1010.8
20260906053053 62 178 0.0 0.0 0.00 0.00 0.00 93 1010.9
20260906052550 62 297 0.0 0.0 0.00 0.00 0.00 93 1010.9
20260906052050 62 297 0.0 0.0 0.00 0.00 0.00 93 1011.0
20260906051602 62 297 0.0 0.0 0.00 0.00 0.00 93 1011.0
20260906051050 62 297 0.0 0.0 0.00 0.00 0.00 93 1011.1
20260906050549 62 297 0.0 0.0 0.00 0.00 0.00 93 1011.1
20260906050049 62 297 0.0 0.0 0.00 0.00 0.00 93 1011.1
20260906045551 62 297 0.0 0.0 0.00 0.00 0.00 93 1011.0
20260906045148 62 297 0.0 0.0 0.00 0.00 0.00 93 1011.0
20260906044549 62 297 0.0 0.0 0.00 0.00 0.00 93 1011.0
20260906044049 61 297 0.0 0.0 0.00 0.00 0.00 93 1011.0
20260906043548 61 297 0.0 0.0 0.00 0.00 0.00 93 1011.0
20260906043050 61 297 0.0 0.0 0.00 0.00 0.00 93 1011.0
20260906042547 61 297 0.0 0.0 0.00 0.00 0.00 92 1011.0
20260906042047 61 297 0.0 0.0 0.00 0.00 0.00 92 1010.9
20260906041554 61 297 0.0 0.0 0.00 0.00 0.00 92 1010.9
20260906041048 61 297 0.0 0.0 0.00 0.00 0.00 92 1010.9
20260906040547 61 297 0.0 0.0 0.00 0.00 0.00 92 1010.9
20260906040047 61 297 0.0 0.0 0.00 0.00 0.00 91 1010.9
20260906035546 61 297 0.0 0.0 0.00 0.00 0.00 91 1010.8
20260906035146 61 297 0.0 0.0 0.00 0.00 0.00 90 1010.8
20260906034548 61 297 0.0 0.0 0.00 0.00 0.00 90 1010.7
20260906034044 61 297 0.0 0.0 0.00 0.00 0.00 90 1010.8
20260906033543 61 297 0.0 0.0 0.00 0.00 0.00 90 1010.8
20260906033045 62 297 0.0 0.0 0.00 0.00 0.00 89 1010.7
20260906032543 62 297 0.0 0.0 0.00 0.00 0.00 89 1010.7
20260906032042 62 297 0.0 0.0 0.00 0.00 0.00 89 1010.6
20260906031541 62 297 0.0 0.0 0.00 0.00 0.00 88 1010.5
20260906031040 62 297 0.0 0.0 0.00 0.00 0.00 88 1010.6
20260906030540 63 297 0.0 0.0 0.00 0.00 0.00 88 1010.7
20260906030039 63 297 0.0 0.0 0.00 0.00 0.00 87 1010.7
20260906025539 63 297 0.0 0.0 0.00 0.00 0.00 87 1010.6
20260906025139 63 297 0.0 0.0 0.00 0.00 0.00 87 1010.7
20260906024546 63 297 0.0 0.0 0.00 0.00 0.00 87 1010.7
20260906024038 63 297 0.0 0.0 0.00 0.00 0.00 87 1010.6
20260906023538 63 297 0.0 0.0 0.00 0.00 0.00 87 1010.6
20260906023038 64 297 0.0 0.0 0.00 0.00 0.00 87 1010.5
20260906022537 64 297 0.0 0.0 0.00 0.00 0.00 87 1010.7
20260906022040 64 297 0.0 0.0 0.00 0.00 0.00 87 1010.7
20260906021538 64 297 0.0 0.0 0.00 0.00 0.00 86 1010.7
20260906021036 64 297 0.0 0.0 0.00 0.00 0.00 86 1010.7
20260906020537 64 333 0.0 0.0 0.00 0.00 0.00 86 1010.7
20260906020045 64 333 0.0 0.0 0.00 0.00 0.00 86 1010.7
20260906015537 64 333 0.0 0.0 0.00 0.00 0.00 86 1010.7
20260906015138 64 333 0.0 0.0 0.00 0.00 0.00 86 1010.6
20260906014550 64 333 0.0 0.0 0.00 0.00 0.00 86 1010.6
20260906014038 64 333 0.0 0.0 0.00 0.00 0.00 86 1010.6
20260906013537 64 333 0.0 0.0 0.00 0.00 0.00 86 1010.7
20260906013039 64 333 0.0 0.0 0.00 0.00 0.00 86 1010.8
20260906012536 64 333 0.0 0.0 0.00 0.00 0.00 86 1010.8
20260906012036 64 333 0.0 0.0 0.00 0.00 0.00 86 1010.8
20260906011540 64 333 0.0 0.0 0.00 0.00 0.00 86 1010.7
20260906011035 64 333 0.0 0.0 0.00 0.00 0.00 86 1010.7
20260906010535 64 333 0.0 0.0 0.00 0.00 0.00 86 1010.6
20260906010035 64 333 0.0 0.0 0.00 0.00 0.00 85 1010.6
20260906005533 64 333 0.0 0.0 0.00 0.00 0.00 85 1010.5
20260906005136 64 333 0.0 0.0 0.00 0.00 0.00 85 1010.4
20260906004540 64 333 0.0 0.0 0.00 0.00 0.00 85 1010.4
20260906004033 64 333 0.0 0.0 0.00 0.00 0.00 86 1010.4
20260906003534 64 333 0.0 0.0 0.00 0.00 0.00 85 1010.4
20260906003046 63 333 0.0 0.0 0.00 0.00 0.00 85 1010.4
20260906002531 64 333 0.0 0.0 0.00 0.00 0.00 85 1010.3
20260906002031 64 333 0.0 0.0 0.00 0.00 0.00 86 1010.2
20260906001531 64 333 0.0 0.0 0.00 0.00 0.00 86 1010.2
20260906001030 64 333 0.0 0.0 0.00 0.00 0.00 86 1010.2
20260906000530 64 333 0.0 0.0 0.00 0.00 0.00 86 1010.2
20260906000029 64 333 0.0 0.0 0.00 0.00 0.00 86 1010.1
20260905235529 64 333 0.0 0.0 0.00 0.00 0.00 85 1010.0
20260905235127 64 333 0.0 0.0 0.00 0.00 0.00 84 1009.8
20260905234529 64 333 0.0 0.0 0.00 0.00 0.00 84 1009.8
20260905234033 65 333 0.0 0.0 0.00 0.00 0.00 84 1009.8
20260905233529 65 333 0.0 0.0 0.00 0.00 0.00 83 1009.9
20260905233029 65 333 0.0 0.0 0.00 0.00 0.00 82 1009.8
20260905232531 65 333 0.0 0.0 0.00 0.00 0.00 82 1009.8
20260905232026 65 333 0.0 0.0 0.00 0.00 0.00 82 1009.8
20260905231530 66 333 0.0 0.0 0.00 0.00 0.00 82 1009.9
20260905231124 66 333 0.0 0.0 0.00 0.00 0.00 81 1009.8
20260905230524 66 333 0.0 0.0 0.00 0.00 0.00 81 1009.8
20260905230024 66 333 0.0 0.0 0.00 0.00 0.00 81 1009.7
20260905225526 66 333 0.0 0.0 0.00 0.00 0.00 80 1009.7
20260905225123 67 333 0.0 0.0 0.00 0.00 0.00 80 1009.7
20260905224526 67 333 0.0 0.0 0.00 0.00 0.00 80 1009.7
20260905224018 67 333 0.0 0.0 0.00 0.00 0.00 79 1009.7
20260905223517 67 333 0.0 0.0 0.00 0.00 0.00 79 1009.7
20260905223017 67 333 0.0 0.0 0.00 0.00 0.00 79 1009.7
20260905222519 68 334 0.0 0.0 0.00 0.00 0.00 78 1009.7
20260905222014 68 333 0.0 0.0 0.00 0.00 0.00 78 1009.6
20260905221514 68 335 0.0 0.0 0.00 0.00 0.00 78 1009.6
20260905221013 68 334 0.0 0.0 0.00 0.00 0.00 77 1009.5
20260905220513 69 4 0.0 0.0 0.00 0.00 0.00 77 1009.4
20260905220015 69 348 0.0 0.0 0.00 0.00 0.00 78 1009.3
20260905215510 69 348 0.0 0.0 0.00 0.00 0.00 77 1009.3
20260905215109 69 348 0.0 0.0 0.00 0.00 0.00 76 1009.0
20260905214509 69 337 0.0 0.0 0.00 0.00 0.00 76 1008.9
20260905214009 69 335 0.0 0.0 0.00 0.00 0.00 77 1008.8
20260905213508 70 339 0.0 0.0 0.00 0.00 0.00 76 1008.7
20260905213007 70 110 0.0 0.0 0.00 0.00 0.00 76 1008.6
20260905212506 70 3 0.0 0.0 0.00 0.00 0.00 76 1008.6
20260905212006 70 3 0.0 0.0 0.00 0.00 0.00 76 1008.5
20260905211506 70 10 0.0 0.0 0.00 0.00 0.00 75 1008.5
20260905211008 70 8 0.0 0.0 0.00 0.00 0.00 76 1008.6
20260905210505 71 5 0.0 0.0 0.00 0.00 0.00 75 1008.5
20260905210010 71 6 0.0 0.0 0.00 0.00 0.00 74 1008.3
20260905205505 72 6 0.0 0.0 0.00 0.00 0.00 74 1008.3
20260905205104 72 14 0.0 0.0 0.00 0.00 0.00 73 1008.1
20260905204503 72 15 0.0 0.0 0.00 0.00 0.00 73 1008.2
20260905204007 72 13 0.0 0.0 0.00 0.00 0.00 73 1008.2
20260905203503 72 345 0.0 0.0 0.00 0.00 0.00 73 1008.1
20260905203003 72 321 0.0 0.0 0.00 0.00 0.00 72 1008.2
20260905202503 73 8 0.0 0.0 0.00 0.00 0.00 72 1008.1
20260905202002 73 11 0.0 0.0 0.00 0.00 0.00 70 1008.1
20260905201503 74 195 0.0 0.0 0.00 0.00 0.00 70 1008.0
20260905201002 74 320 0.0 0.0 0.00 0.00 0.00 70 1007.9
20260905200502 74 321 0.0 0.0 0.00 0.00 0.00 70 1007.9
20260905200002 74 347 0.0 0.0 0.00 0.00 0.00 69 1007.9
20260905195502 75 1 0.0 0.0 0.00 0.00 0.00 68 1007.8
20260905195101 73 248 0.0 0.0 0.00 0.00 0.00 74 1007.9
20260905194600 73 320 0.0 0.0 0.00 0.00 0.00 74 1007.9
20260905194100 72 347 0.0 0.0 0.00 0.00 0.00 72 1007.9
20260905193559 72 345 0.0 0.0 0.00 0.00 0.00 74 1007.9
20260905193109 72 359 0.0 0.0 0.00 0.00 0.00 74 1008.0
20260905192559 72 4 0.0 0.0 0.00 0.00 0.00 74 1007.9
20260905192102 72 335 0.0 0.0 0.00 0.00 0.00 73 1008.0
20260905191600 72 340 0.0 0.0 0.00 0.00 0.00 73 1007.9
20260905191058 72 272 0.0 0.0 0.00 0.00 0.00 73 1007.9
20260905190558 72 2 0.0 0.0 0.00 0.00 0.00 73 1008.0
20260905190101 72 352 0.0 0.0 0.00 0.00 0.00 74 1008.0
20260905185557 72 358 0.0 0.0 0.00 0.00 0.00 73 1008.1
20260905185058 72 257 0.0 0.0 0.00 0.00 0.00 74 1008.1
20260905184559 72 153 0.0 0.0 0.00 0.00 0.00 75 1008.0
20260905184059 71 282 0.0 0.0 0.00 0.00 0.00 75 1008.0
20260905183559 71 252 0.0 0.0 0.00 0.00 0.00 74 1008.1
20260905183100 71 344 0.0 0.0 0.00 0.00 0.00 75 1008.1
20260905182559 70 330 0.0 0.0 0.00 0.00 0.00 78 1008.1
20260905182058 70 209 0.0 0.0 0.00 0.00 0.00 77 1008.2
20260905181602 70 331 0.0 0.0 0.00 0.00 0.00 77 1008.3
20260905181057 70 333 0.0 0.0 0.00 0.00 0.00 79 1008.3
20260905180600 70 320 0.0 0.0 0.00 0.00 0.00 78 1008.3
20260905180100 70 320 0.0 0.0 0.00 0.00 0.00 77 1008.3
20260905175555 71 319 0.0 0.0 0.00 0.00 0.00 77 1008.3
20260905175054 72 287 0.0 0.0 0.00 0.00 0.00 75 1008.1
20260905174555 72 287 0.0 0.0 0.00 0.00 0.00 75 1008.1
20260905174053 72 352 0.0 0.0 0.00 0.00 0.00 75 1008.1
20260905173553 72 345 0.0 0.0 0.00 0.00 0.00 74 1007.9
20260905173052 72 345 0.0 0.0 0.00 0.00 0.00 74 1007.9
20260905172553 72 345 0.0 0.0 0.00 0.00 0.00 73 1007.9
20260905172053 72 341 0.0 0.0 0.00 0.00 0.00 74 1007.9
20260905171552 71 348 0.0 0.0 0.00 0.00 0.00 76 1007.8
20260905171053 71 347 0.0 0.0 0.00 0.00 0.00 75 1007.8
20260905170552 71 334 0.0 0.0 0.00 0.00 0.00 74 1007.8
20260905170057 72 339 0.0 0.0 0.00 0.00 0.00 72 1007.8
20260905165549 72 352 0.0 0.0 0.00 0.00 0.00 72 1007.7
20260905165053 73 274 0.0 0.0 0.00 0.00 0.00 72 1007.5
20260905164550 73 219 0.0 0.0 0.00 0.00 0.00 73 1007.5
20260905164049 73 212 0.0 0.0 0.00 0.00 0.00 74 1007.5
20260905163549 72 197 0.0 0.0 0.00 0.00 0.00 74 1007.6
20260905163049 72 342 0.0 0.0 0.00 0.00 0.00 73 1007.5
20260905162551 73 340 0.0 0.0 0.00 0.00 0.00 74 1007.5
20260905162047 73 338 0.0 0.0 0.00 0.00 0.00 72 1007.5
20260905161547 73 231 0.0 0.0 0.00 0.00 0.00 71 1007.5
20260905161048 74 251 0.0 0.0 0.00 0.00 0.00 69 1007.3
20260905160547 74 345 0.0 0.0 0.00 0.00 0.00 69 1007.3
20260905160050 74 215 0.0 0.0 0.00 0.00 0.00 71 1007.3
20260905155546 74 342 0.0 0.0 0.00 0.00 0.00 71 1007.3
20260905155046 73 333 0.0 0.0 0.00 0.00 0.00 71 1007.3
20260905154549 73 346 0.0 0.0 0.00 0.00 0.00 71 1007.3
20260905154043 73 160 0.0 0.0 0.00 0.00 0.00 76 1007.4
20260905153546 72 347 0.0 0.0 0.00 0.00 0.00 74 1007.4
20260905153041 72 342 0.0 0.0 0.00 0.00 0.00 74 1007.4
20260905152541 73 345 0.0 0.0 0.00 0.00 0.00 72 1007.3
20260905152041 73 342 0.0 0.0 0.00 0.00 0.00 72 1007.3
20260905151543 73 331 0.0 0.0 0.00 0.00 0.00 72 1007.2
20260905151040 73 335 0.0 0.0 0.00 0.00 0.00 73 1007.3
20260905150541 73 299 0.0 0.0 0.00 0.00 0.00 73 1007.2
20260905150047 73 336 0.0 0.0 0.00 0.00 0.00 73 1007.2
20260905145542 73 6 0.0 0.0 0.00 0.00 0.00 74 1007.2
20260905145040 72 340 0.0 0.0 0.00 0.00 0.00 75 1007.2
20260905144547 72 340 0.0 0.0 0.00 0.00 0.00 75 1007.2
20260905144044 72 4 0.0 0.0 0.00 0.00 0.00 76 1007.3
20260905143540 71 328 0.0 0.0 0.00 0.00 0.00 77 1007.3
20260905143049 71 203 0.0 0.0 0.00 0.00 0.00 77 1007.4
20260905142539 71 221 0.0 0.0 0.00 0.00 0.00 77 1007.4
20260905142041 70 203 0.0 0.0 0.00 0.00 0.00 76 1007.3
20260905141540 70 192 0.0 0.0 0.00 0.00 0.00 78 1007.4
20260905141041 70 181 0.0 0.0 0.00 0.00 0.00 78 1007.3
20260905140540 70 345 0.0 0.0 0.00 0.00 0.00 78 1007.3
20260905140038 70 5 0.0 0.0 0.00 0.00 0.00 79 1007.4
20260905135538 69 44 0.0 0.0 0.00 0.00 0.00 79 1007.5
20260905135041 69 3 0.0 0.0 0.00 0.00 0.00 79 1007.3
20260905134538 69 355 0.0 0.0 0.00 0.00 0.00 78 1007.3
20260905134039 69 8 0.0 0.0 0.00 0.00 0.00 80 1007.3
20260905133538 69 349 0.0 0.0 0.00 0.00 0.00 80 1007.3